Weather History for Paducah, KY

Change the Weather History Date:

Saturday, October 26, 2013

  Actual Average Record
Temperature  
Mean Temperature 49 °F 56 °F  
Max Temperature 61 °F 68 °F 86 °F (1944)
Min Temperature 36 °F 44 °F 28 °F (1968)
Degree Days  
Heating Degree Days 16 10  
Month to date heating degree days 175 175  
Since 1 July heating degree days 180 214  
Cooling Degree Days 0 1  
Month to date cooling degree days 63 37  
Year to date cooling degree days 1471 1537  
Moisture  
Dew Point 35 °F    
Average Humidity 67    
Maximum Humidity 86    
Minimum Humidity 47    
Precipitation  
Precipitation 0.00 in 0.12 in 1.34 in (1953)
Month to date precipitation 4.92 3.35  
Year to date precipitation 48.79 39.58  
Snow  
Snow 0.00 in 0.00 in T in (1957)
Month to date snowfall 0.0 0.1  
Since 1 July snowfall 0.0 0.1  
Since 1 September snowfall 0.0 0.1  
Snow Depth 0.00 in    
Sea Level Pressure  
Sea Level Pressure 30.16 in    
Wind  
Wind Speed 6 mph (SW)    
Max Wind Speed 16 mph    
Max Gust Speed 23 mph    
Visibility 10 miles    
Events      
T = Trace of Precipitation, MM = Missing Value Source: NWS Daily Summary

Daily Weather History Graph

Daily Weather History Graph

Search for Another Location

Airport:

Trip Planner

Search our weather history database for the weather conditions in past years. The results will help you decide how hot, cold, wet, or windy it might be!

Date:

Astronomy

Oct. 26, 2013 Rise Set
Actual Time 7:13 AM CDT 6:03 PM CDT
Civil Twilight 6:46 AM CDT 6:30 PM CDT
Nautical Twilight 6:16 AM CDT 7:01 PM CDT
Astronomical Twilight 5:46 AM CDT 7:31 PM CDT
Moon No Moon Rise 1:28 PM CDT (10/26)
Length of Visible Light 11h 43m
Length of Day
10h 50m
Waning Gibbous, 53% of the Moon is Illuminated
Oct 26
Waning Gibbous
Oct 26
Last Quarter
Nov 3
New
Nov 9
First Quarter
Nov 17
Full

Hourly Weather History & Observations

Time (CDT) Temp. Windchill Dew Point Humidity Pressure Visibility Wind Dir Wind Speed Gust Speed Precip Events Conditions
12:53 AM 37.0 °F 32.4 °F 27.0 °F 67% 30.29 in 10.0 mi South 5.8 mph - N/A   Clear
1:53 AM 37.9 °F 35.5 °F 27.0 °F 65% 30.27 in 10.0 mi South 3.5 mph - N/A   Clear
2:53 AM 37.9 °F 35.5 °F 28.0 °F 68% 30.26 in 10.0 mi SSW 3.5 mph - N/A   Clear
3:53 AM 37.0 °F 34.5 °F 28.0 °F 70% 30.26 in 10.0 mi Variable 3.5 mph - N/A   Clear
4:53 AM 37.9 °F 35.5 °F 28.0 °F 68% 30.25 in 10.0 mi Variable 3.5 mph - N/A   Mostly Cloudy
5:53 AM 39.9 °F 36.7 °F 30.0 °F 68% 30.25 in 10.0 mi Variable 4.6 mph - N/A   Overcast
6:53 AM 41.0 °F 36.4 °F 30.0 °F 65% 30.25 in 10.0 mi SW 6.9 mph - N/A   Overcast
7:53 AM 42.1 °F 39.2 °F 32.0 °F 67% 30.24 in 10.0 mi Variable 4.6 mph - N/A   Overcast
8:53 AM 46.0 °F 42.5 °F 30.9 °F 56% 30.21 in 10.0 mi SW 6.9 mph 17.3 mph N/A   Overcast
9:53 AM 48.0 °F - 30.9 °F 52% 30.20 in 10.0 mi SSW 6.9 mph - N/A   Overcast
10:53 AM 50.0 °F - 32.0 °F 50% 30.19 in 10.0 mi SW 9.2 mph 16.1 mph N/A   Overcast
11:53 AM 53.1 °F - 35.1 °F 50% 30.16 in 10.0 mi SSW 10.4 mph 17.3 mph N/A   Overcast
12:53 PM 54.0 °F - 35.1 °F 49% 30.13 in 10.0 mi WSW 10.4 mph 16.1 mph N/A   Overcast
1:53 PM 57.0 °F - 37.9 °F 49% 30.09 in 10.0 mi SW 10.4 mph 17.3 mph N/A   Mostly Cloudy
2:53 PM 59.0 °F - 39.0 °F 48% 30.07 in 10.0 mi SW 11.5 mph 21.9 mph N/A   Clear
3:53 PM 60.1 °F - 41.0 °F 49% 30.06 in 10.0 mi SW 10.4 mph - N/A   Mostly Cloudy
4:53 PM 60.1 °F - 42.1 °F 51% 30.06 in 10.0 mi SW 9.2 mph - N/A   Overcast
5:53 PM 57.9 °F - 42.1 °F 56% 30.06 in 10.0 mi SW 6.9 mph - N/A   Overcast
6:53 PM 57.0 °F - 43.0 °F 59% 30.09 in 10.0 mi SW 3.5 mph - N/A   Overcast
7:53 PM 51.1 °F - 43.0 °F 74% 30.09 in 10.0 mi Calm Calm - N/A   Clear
8:53 PM 48.0 °F - 42.1 °F 80% 30.09 in 10.0 mi WSW 3.5 mph - N/A   Mostly Cloudy
9:53 PM 48.9 °F - 43.0 °F 80% 30.09 in 10.0 mi Calm Calm - N/A   Partly Cloudy
10:53 PM 46.0 °F - 43.0 °F 89% 30.09 in 10.0 mi Calm Calm - N/A   Scattered Clouds
11:53 PM 48.0 °F - 44.1 °F 86% 30.10 in 10.0 mi Calm Calm - N/A   Mostly Cloudy